"Pseudo-MPEC" for P2165if

Created 2020 Sep 18 3:07:52 UT using Find_Orb

Click here for an explanation of pseudo-MPECs

 
 Astrometry: 
     P2165if  C2020 09 14.36067 01 54 24.10 +19 53 11.4    ~9I37 21.8 GVNEOCPG96
     P2165if  C2020 09 14wTMLk$$O:'qY'ra%]8ZeFOG$y4x%Zu3P:ApuEATM9o'r,@SLf\sDF52
     P2165if  C2020 09 14\-B;AqNqsh8,cuR^)YxS:p9Z#e!:8EvyBk@9?k3b^gn!_y37RNbFF52
     P2165if  C2020 09 14b?1=Y$=/#_Dx@ie(MRPNn+hH%FAca2ZAstrometry@6wPm\Pk5J[F52
     P2165if  C2020 09 14T,.-]7Uh%#`^XaX$AD^a46k(LBsaFTS=#6.XXg6r%n3+kKPh9@YAF52
     P2165if  C2020 09 17lUoT#J/t'y(9WIO)Owq4redacted;$b;)l]B2p%L33(677click1F51
     P2165if  C2020 09 176mWGqa*F^!4Oy0fBw]:V/MCk=4((,rP=heresG$#G=Y[3we3aQ/8F51
     P2165if  C2020 09 174InwPkhm%JP1vOoMSMtJ,U^)tqDLZ]`)+8Yw+V4'\cQcp$]A0mYmF51
     P2165if KC2020 09 18g*kmdNTGZFZWL`31qGmSdD=[TVf!5YC?J6]Sj*g6dD=$W(uYu)CsL01
     P2165if KC2020 09 18Xu.ha0#tSvyi3R4q?$5=u:N$iaSrfor_MLqH[`dk=^xn7g'iUybZL01
     P2165if IC2020 09 184Y/(b3rIgexplanationDb:qZ,@Zw]?OQ0pYL2`FPo)8)!;Jy$J^L01
     P2165if IC2020 09 18ZV$;-;4\mDSx%8o?8y4A7qv,AP0_HtWLidBWGiUoTYa#xSfOm^%yL01

Station data:
(F51) Pan-STARRS 1, Haleakala  (N20.707235 W156.255910)  US/Hawaii.
   Observers N. Primak, A. Schultz, S. Watters, J. Thiel, T. Goggia. Measurer
   PS1 Science Consortium. 1.8-m Ritchey-Chrétien + CCD.
(F52) Pan-STARRS 2, Haleakala  (N20.707384 W156.255910)  US/Hawaii. 1.8-m
   Ritchey-Chrétien + CCD.
(G96) Mt. Lemmon Survey  (N32.442754 W110.788720)  US/Arizona.  Observers T.
   A. Pruyne, B. M. Africano, E. J. Christensen, G. A. Farneth, D. C. Fuls,
   A. R. Gibbs, A. D. Grauer, H. Gröller, J. A. Johnson, R. A. Kowalski, S.
   M. Larson, G. J. Leonard, D. Rankin, R. L. Seaman, F. C. Shelly. 1.5-m
   reflector + 10K CCD.
(L01) Višnjan Observatory, Tičan  (N45.290900 E13.749300)  Croatia.
   Observers K. Korlević, E. Pettarin. Measurer E. Pettarin. 1.0-m f/2.9
   reflector + CCD.

Orbital elements:  P2165if
   Perihelion 2020 Sep 8.723476 +/- 0.507 TT = 17:21:48 (JD 2459101.223476)
Epoch 2020 Sep 18.0 TT = JDT 2459110.5   Earth MOID: 0.1678   Ma: 0.0306
M   2.16721818 +/- 0.18             (J2000 ecliptic)          AutoNEOCP
n   0.23362394 +/- 0.0319           Peri.   13.95944 +/- 0.57
a   2.61090542 +/- 0.233            Node   339.36141 +/- 0.35
e   0.5508151 +/- 0.0378            Incl.    4.23290 +/- 0.18
P   4.22                   H 23.3   G  0.15   U 10.4  
q 1.17277925 +/- 0.00789    Q 4.04903160 +/- 0.483
From 12 observations 2020 Sept. 14-18; mean residual 0".29
Residuals in arcseconds: 
200914 G96  .23-  .71+    200914 F52  .20-  .11-    200918 L01  .06-  .08+    
200914 F52  .24+  .27-    200917 F51  .18+  .02-    200918 L01  .17+  .42+    
200914 F52  .22+  .45-    200917 F51  .04-  .09+    200918 L01  .03+  .15+    
200914 F52  .11+  .36-    200917 F51  .15-  .08+    200918 L01  .15-  .77-    

Ephemerides (geocentric):
Date (UTC) HH   RA              Dec         delta   r     elong  mag " sig PA
---- -- -- --  -------------   -----------  ------ ------ -----  --- ---- ---
2020 09 18 03  02 03 22.535   +22 00 19.16  .21980 1.1780 138.3 21.8 1.00   4
2020 09 18 04  02 03 28.140   +22 01 38.73  .21984 1.1780 138.3 21.8 1.07   6
2020 09 18 05  02 03 33.736   +22 02 58.20  .21988 1.1781 138.3 21.8 1.15   8
2020 09 18 06  02 03 39.325   +22 04 17.56  .21993 1.1781 138.3 21.8 1.22   9
2020 09 18 07  02 03 44.905   +22 05 36.81  .21997 1.1782 138.3 21.8 1.30  11
2020 09 18 08  02 03 50.478   +22 06 55.96  .22002 1.1782 138.3 21.8 1.39  12
2020 09 18 09  02 03 56.042   +22 08 15.00  .22006 1.1783 138.3 21.8 1.47  13
2020 09 18 10  02 04 01.598   +22 09 33.94  .22011 1.1783 138.3 21.8 1.55  14
2020 09 18 11  02 04 07.146   +22 10 52.77  .22015 1.1784 138.4 21.8 1.64  15
2020 09 18 12  02 04 12.686   +22 12 11.49  .22020 1.1784 138.4 21.8 1.73  16
2020 09 18 13  02 04 18.218   +22 13 30.11  .22024 1.1785 138.4 21.8 1.82  17
2020 09 18 14  02 04 23.741   +22 14 48.62  .22029 1.1785 138.4 21.8 1.91  18
2020 09 18 15  02 04 29.257   +22 16 07.02  .22034 1.1786 138.4 21.8 2.00  18
2020 09 18 16  02 04 34.764   +22 17 25.32  .22038 1.1786 138.4 21.8 2.10  19
2020 09 18 17  02 04 40.264   +22 18 43.51  .22043 1.1787 138.4 21.8 2.20  20
2020 09 18 18  02 04 45.755   +22 20 01.60  .22047 1.1787 138.4 21.8 2.29  20
2020 09 18 19  02 04 51.238   +22 21 19.58  .22052 1.1788 138.4 21.8 2.39  21
2020 09 18 20  02 04 56.713   +22 22 37.45  .22057 1.1788 138.4 21.8 2.49  21
2020 09 18 21  02 05 02.180   +22 23 55.21  .22061 1.1789 138.5 21.8 2.59  21
2020 09 18 22  02 05 07.638   +22 25 12.87  .22066 1.1789 138.5 21.8 2.70  22
2020 09 18 23  02 05 13.089   +22 26 30.42  .22071 1.1790 138.5 21.8 2.80  22
2020 09 19 00  02 05 18.531   +22 27 47.87  .22075 1.1790 138.5 21.8 2.91  23
2020 09 19 01  02 05 23.966   +22 29 05.21  .22080 1.1791 138.5 21.8 3.02  23
2020 09 19 02  02 05 29.392   +22 30 22.44  .22085 1.1791 138.5 21.8 3.13  23
2020 09 19 03  02 05 34.810   +22 31 39.56  .22090 1.1792 138.5 21.8 3.24  23
2020 09 19 04  02 05 40.219   +22 32 56.58  .22094 1.1792 138.5 21.8 3.35  24
2020 09 19 05  02 05 45.621   +22 34 13.49  .22099 1.1793 138.5 21.8 3.46  24
2020 09 19 06  02 05 51.015   +22 35 30.30  .22104 1.1793 138.5 21.8 3.57  24
2020 09 19 07  02 05 56.400   +22 36 46.99  .22109 1.1794 138.6 21.8 3.69  24
2020 09 19 08  02 06 01.777   +22 38 03.59  .22113 1.1794 138.6 21.8 3.80  25
2020 09 19 09  02 06 07.146   +22 39 20.07  .22118 1.1795 138.6 21.8 3.92  25
2020 09 19 10  02 06 12.507   +22 40 36.45  .22123 1.1795 138.6 21.8 4.04  25
2020 09 19 11  02 06 17.859   +22 41 52.72  .22128 1.1796 138.6 21.8 4.16  25
2020 09 19 12  02 06 23.204   +22 43 08.88  .22133 1.1796 138.6 21.8 4.28  25
2020 09 19 13  02 06 28.540   +22 44 24.93  .22138 1.1797 138.6 21.8 4.40  26
2020 09 19 14  02 06 33.868   +22 45 40.88  .22143 1.1797 138.6 21.8 4.53  26
2020 09 19 15  02 06 39.188   +22 46 56.72  .22148 1.1798 138.6 21.8 4.65  26
2020 09 19 16  02 06 44.500   +22 48 12.46  .22153 1.1798 138.7 21.8 4.78  26
2020 09 19 17  02 06 49.803   +22 49 28.09  .22157 1.1799 138.7 21.8 4.91  26
2020 09 19 18  02 06 55.099   +22 50 43.61  .22162 1.1799 138.7 21.8 5.04  26
2020 09 19 19  02 07 00.386   +22 51 59.02  .22167 1.1800 138.7 21.8 5.17  26
2020 09 19 20  02 07 05.665   +22 53 14.33  .22172 1.1801 138.7 21.8 5.30  26
2020 09 19 21  02 07 10.936   +22 54 29.53  .22177 1.1801 138.7 21.8 5.43  27
2020 09 19 22  02 07 16.198   +22 55 44.62  .22182 1.1802 138.7 21.8 5.56  27
2020 09 19 23  02 07 21.453   +22 56 59.60  .22187 1.1802 138.7 21.8 5.69  27
2020 09 20 00  02 07 26.699   +22 58 14.48  .22192 1.1803 138.8 21.8 5.83  27
2020 09 20 01  02 07 31.937   +22 59 29.25  .22197 1.1803 138.8 21.8 5.97  27
2020 09 20 02  02 07 37.166   +23 00 43.91  .22203 1.1804 138.8 21.8 6.10  27